Year,Month,Day,Hour,Minute,Value (Times are PST for barometer in hPa)
2015,08,29,00,00,1004.40
2015,08,29,00,01,1004.37
2015,08,29,00,02,1004.34
2015,08,29,00,03,1004.34
2015,08,29,00,04,1004.27
2015,08,29,00,05,1004.23
2015,08,29,00,06,1004.13
2015,08,29,00,07,1004.13
2015,08,29,00,08,1004.10
2015,08,29,00,09,1004.10
2015,08,29,00,10,1004.10
2015,08,29,00,11,1004.10
2015,08,29,00,12,1004.10
2015,08,29,00,13,1004.00
2015,08,29,00,14,1004.00
2015,08,29,00,15,1003.90
2015,08,29,00,16,1003.86
2015,08,29,00,17,1003.86
2015,08,29,00,18,1003.83
2015,08,29,00,19,1003.83
2015,08,29,00,20,1003.79
2015,08,29,00,21,1003.83
2015,08,29,00,22,1003.76
2015,08,29,00,23,1003.73
2015,08,29,00,24,1003.69
2015,08,29,00,25,1003.69
2015,08,29,00,26,1003.66
2015,08,29,00,27,1003.66
2015,08,29,00,28,1003.62
2015,08,29,00,29,1003.62
2015,08,29,00,30,1003.62
2015,08,29,00,31,1003.62
2015,08,29,00,32,1003.66
2015,08,29,00,33,1003.69
2015,08,29,00,34,1003.69
2015,08,29,00,35,1003.66
2015,08,29,00,36,1003.62
2015,08,29,00,37,1003.56
2015,08,29,00,38,1003.59
2015,08,29,00,39,1003.59
2015,08,29,00,40,1003.56
2015,08,29,00,41,1003.52
2015,08,29,00,42,1003.52
2015,08,29,00,43,1003.49
2015,08,29,00,44,1003.42
2015,08,29,00,45,1003.42
2015,08,29,00,46,1003.39
2015,08,29,00,47,1003.35
2015,08,29,00,48,1003.39
2015,08,29,00,49,1003.35
2015,08,29,00,50,1003.32
2015,08,29,00,51,1003.32
2015,08,29,00,52,1003.35
2015,08,29,00,53,1003.32
2015,08,29,00,54,1003.29
2015,08,29,00,55,1003.22
2015,08,29,00,56,1003.18
2015,08,29,00,57,1003.22
2015,08,29,00,58,1003.22
2015,08,29,00,59,1003.22
2015,08,29,01,00,1003.18
2015,08,29,01,01,1003.15
2015,08,29,01,02,1003.05
2015,08,29,01,03,1002.95
2015,08,29,01,04,1002.88
2015,08,29,01,05,1002.85
2015,08,29,01,06,1002.81
2015,08,29,01,07,1002.88
2015,08,29,01,08,1002.85
2015,08,29,01,09,1002.85
2015,08,29,01,10,1002.81
2015,08,29,01,11,1002.78
2015,08,29,01,12,1002.71
2015,08,29,01,13,1002.71
2015,08,29,01,14,1002.64
2015,08,29,01,15,1002.61
2015,08,29,01,16,1002.51
2015,08,29,01,17,1002.54
2015,08,29,01,18,1002.54
2015,08,29,01,19,1002.51
2015,08,29,01,20,1002.51
2015,08,29,01,21,1002.51
2015,08,29,01,22,1002.47
2015,08,29,01,23,1002.47
2015,08,29,01,24,1002.47
2015,08,29,01,25,1002.37
2015,08,29,01,26,1002.37
2015,08,29,01,27,1002.41
2015,08,29,01,28,1002.37
2015,08,29,01,29,1002.37
2015,08,29,01,30,1002.34
2015,08,29,01,31,1002.27
2015,08,29,01,32,1002.27
2015,08,29,01,33,1002.30
2015,08,29,01,34,1002.27
2015,08,29,01,35,1002.20
2015,08,29,01,36,1002.13
2015,08,29,01,37,1002.20
2015,08,29,01,38,1002.17
2015,08,29,01,39,1002.13
2015,08,29,01,40,1002.07
2015,08,29,01,41,1002.03
2015,08,29,01,42,1001.97
2015,08,29,01,43,1001.93
2015,08,29,01,44,1001.90
2015,08,29,01,45,1001.83
2015,08,29,01,46,1001.80
2015,08,29,01,47,1001.79
2015,08,29,01,48,1001.69
2015,08,29,01,49,1001.66
2015,08,29,01,50,1001.66
2015,08,29,01,51,1001.63
2015,08,29,01,52,1001.59
2015,08,29,01,53,1001.56
2015,08,29,01,54,1001.56
2015,08,29,01,55,1001.56
2015,08,29,01,56,1001.49
2015,08,29,01,57,1001.49
2015,08,29,01,58,1001.46
2015,08,29,01,59,1001.49
2015,08,29,02,00,1001.42
2015,08,29,02,01,1001.42
2015,08,29,02,02,1001.42
2015,08,29,02,03,1001.39
2015,08,29,02,04,1001.36
2015,08,29,02,05,1001.29
2015,08,29,02,06,1001.29
2015,08,29,02,07,1001.25
2015,08,29,02,08,1001.19
2015,08,29,02,09,1001.15
2015,08,29,02,10,1001.15
2015,08,29,02,11,1001.12
2015,08,29,02,12,1001.05
2015,08,29,02,13,1001.02
2015,08,29,02,14,1001.05
2015,08,29,02,15,1001.02
2015,08,29,02,16,1000.98
2015,08,29,02,17,1000.95
2015,08,29,02,18,1000.92
2015,08,29,02,19,1000.88
2015,08,29,02,20,1000.88
2015,08,29,02,21,1000.85
2015,08,29,02,22,1000.85
2015,08,29,02,23,1000.81
2015,08,29,02,24,1000.85
2015,08,29,02,25,1000.81
2015,08,29,02,26,1000.81
2015,08,29,02,27,1000.85
2015,08,29,02,28,1000.81
2015,08,29,02,29,1000.78
2015,08,29,02,30,1000.75
2015,08,29,02,31,1000.71
2015,08,29,02,32,1000.68
2015,08,29,02,33,1000.68
2015,08,29,02,34,1000.64
2015,08,29,02,35,1000.68
2015,08,29,02,36,1000.64
2015,08,29,02,37,1000.68
2015,08,29,02,38,1000.64
2015,08,29,02,39,1000.68
2015,08,29,02,40,1000.64
2015,08,29,02,41,1000.68
2015,08,29,02,42,1000.75
2015,08,29,02,43,1000.71
2015,08,29,02,44,1000.68
2015,08,29,02,45,1000.71
2015,08,29,02,46,1000.71
2015,08,29,02,47,1000.71
2015,08,29,02,48,1000.68
2015,08,29,02,49,1000.64
2015,08,29,02,50,1000.64
2015,08,29,02,51,1000.64
2015,08,29,02,52,1000.58
2015,08,29,02,53,1000.58
2015,08,29,02,54,1000.58
2015,08,29,02,55,1000.51
2015,08,29,02,56,1000.48
2015,08,29,02,57,1000.48
2015,08,29,02,58,1000.48
2015,08,29,02,59,1000.44
2015,08,29,03,00,1000.44
2015,08,29,03,01,1000.41
2015,08,29,03,02,1000.41
2015,08,29,03,03,1000.41
2015,08,29,03,04,1000.41
2015,08,29,03,05,1000.41
2015,08,29,03,06,1000.34
2015,08,29,03,07,1000.31
2015,08,29,03,08,1000.20
2015,08,29,03,09,1000.17
2015,08,29,03,10,1000.17
2015,08,29,03,11,1000.10
2015,08,29,03,12,1000.10
2015,08,29,03,13,1000.00
2015,08,29,03,14,1000.00
2015,08,29,03,15,1000.00
2015,08,29,03,16,999.97
2015,08,29,03,17,999.93
2015,08,29,03,18,999.93
2015,08,29,03,19,999.90
2015,08,29,03,20,999.87
2015,08,29,03,21,999.87
2015,08,29,03,22,999.80
2015,08,29,03,23,999.80
2015,08,29,03,24,999.80
2015,08,29,03,25,999.83
2015,08,29,03,26,999.80
2015,08,29,03,27,999.80
2015,08,29,03,28,999.80
2015,08,29,03,29,999.76
2015,08,29,03,30,999.76
2015,08,29,03,31,999.76
2015,08,29,03,32,999.76
2015,08,29,03,33,999.73
2015,08,29,03,34,999.76
2015,08,29,03,35,999.73
2015,08,29,03,36,999.70
2015,08,29,03,37,999.70
2015,08,29,03,38,999.66
2015,08,29,03,39,999.63
2015,08,29,03,40,999.56
2015,08,29,03,41,999.53
2015,08,29,03,42,999.49
2015,08,29,03,43,999.49
2015,08,29,03,44,999.39
2015,08,29,03,45,999.39
2015,08,29,03,46,999.39
2015,08,29,03,47,999.36
2015,08,29,03,48,999.32
2015,08,29,03,49,999.29
2015,08,29,03,50,999.22
2015,08,29,03,51,999.19
2015,08,29,03,52,999.15
2015,08,29,03,53,999.09
2015,08,29,03,54,999.09
2015,08,29,03,55,999.05
2015,08,29,03,56,998.95
2015,08,29,03,57,998.92
2015,08,29,03,58,998.85
2015,08,29,03,59,998.82
2015,08,29,04,00,998.75
2015,08,29,04,01,998.71
2015,08,29,04,02,998.68
2015,08,29,04,03,998.65
2015,08,29,04,04,998.65
2015,08,29,04,05,998.61
2015,08,29,04,06,998.58
2015,08,29,04,07,998.48
2015,08,29,04,08,998.44
2015,08,29,04,09,998.41
2015,08,29,04,10,998.44
2015,08,29,04,11,998.38
2015,08,29,04,12,998.34
2015,08,29,04,13,998.24
2015,08,29,04,14,998.17
2015,08,29,04,15,998.17
2015,08,29,04,16,998.10
2015,08,29,04,17,998.07
2015,08,29,04,18,998.04
2015,08,29,04,19,997.97
2015,08,29,04,20,997.97
2015,08,29,04,21,997.94
2015,08,29,04,22,997.90
2015,08,29,04,23,997.83
2015,08,29,04,24,997.80
2015,08,29,04,25,997.77
2015,08,29,04,26,997.66
2015,08,29,04,27,997.63
2015,08,29,04,28,997.60
2015,08,29,04,29,997.56
2015,08,29,04,30,997.53
2015,08,29,04,31,997.50
2015,08,29,04,32,997.50
2015,08,29,04,33,997.50
2015,08,29,04,34,997.50
2015,08,29,04,35,997.43
2015,08,29,04,36,997.43
2015,08,29,04,37,997.36
2015,08,29,04,38,997.33
2015,08,29,04,39,997.29
2015,08,29,04,40,997.26
2015,08,29,04,41,997.22
2015,08,29,04,42,997.22
2015,08,29,04,43,997.16
2015,08,29,04,44,997.12
2015,08,29,04,45,997.05
2015,08,29,04,46,997.05
2015,08,29,04,47,996.99
2015,08,29,04,48,996.99
2015,08,29,04,49,996.99
2015,08,29,04,50,996.95
2015,08,29,04,51,996.85
2015,08,29,04,52,996.85
2015,08,29,04,53,996.82
2015,08,29,04,54,996.75
2015,08,29,04,55,996.65
2015,08,29,04,56,996.61
2015,08,29,04,57,996.55
2015,08,29,04,58,996.48
2015,08,29,04,59,996.41
2015,08,29,05,00,996.41
2015,08,29,05,01,996.38
2015,08,29,05,02,996.34
2015,08,29,05,03,996.34
2015,08,29,05,04,996.31
2015,08,29,05,05,996.28
2015,08,29,05,06,996.21
2015,08,29,05,07,996.17
2015,08,29,05,08,996.14
2015,08,29,05,09,996.11
2015,08,29,05,10,996.11
2015,08,29,05,11,996.11
2015,08,29,05,12,996.04
2015,08,29,05,13,996.07
2015,08,29,05,14,996.01
2015,08,29,05,15,996.04
2015,08,29,05,16,996.01
2015,08,29,05,17,995.94
2015,08,29,05,18,995.90
2015,08,29,05,19,995.94
2015,08,29,05,20,995.90
2015,08,29,05,21,995.90
2015,08,29,05,22,995.94
2015,08,29,05,23,995.87
2015,08,29,05,24,995.84
2015,08,29,05,25,995.77
2015,08,29,05,26,995.70
2015,08,29,05,27,995.67
2015,08,29,05,28,995.63
2015,08,29,05,29,995.56
2015,08,29,05,30,995.56
2015,08,29,05,31,995.60
2015,08,29,05,32,995.60
2015,08,29,05,33,995.55
2015,08,29,05,34,995.43
2015,08,29,05,35,995.33
2015,08,29,05,36,995.26
2015,08,29,05,37,995.23
2015,08,29,05,38,995.23
2015,08,29,05,39,995.12
2015,08,29,05,40,995.12
2015,08,29,05,41,995.09
2015,08,29,05,42,994.96
2015,08,29,05,43,994.92
2015,08,29,05,44,994.92
2015,08,29,05,45,994.92
2015,08,29,05,46,994.89
2015,08,29,05,47,994.79
2015,08,29,05,48,994.68
2015,08,29,05,49,994.65
2015,08,29,05,50,994.55
2015,08,29,05,51,994.52
2015,08,29,05,52,994.45
2015,08,29,05,53,994.41
2015,08,29,05,54,994.45
2015,08,29,05,55,994.45
2015,08,29,05,56,994.45
2015,08,29,05,57,994.35
2015,08,29,05,58,994.24
2015,08,29,05,59,994.28
2015,08,29,06,00,994.21
2015,08,29,06,01,994.04
2015,08,29,06,02,993.97
2015,08,29,06,03,993.94
2015,08,29,06,04,993.87
2015,08,29,06,05,993.87
2015,08,29,06,06,993.84
2015,08,29,06,07,993.77
2015,08,29,06,08,993.67
2015,08,29,06,09,993.51
2015,08,29,06,10,993.40
2015,08,29,06,11,993.33
2015,08,29,06,12,993.40
2015,08,29,06,13,993.33
2015,08,29,06,14,993.26
2015,08,29,06,15,993.19
2015,08,29,06,16,993.19
2015,08,29,06,17,993.19
2015,08,29,06,18,993.16
2015,08,29,06,19,993.13
2015,08,29,06,20,993.03
2015,08,29,06,21,992.89
2015,08,29,06,22,992.82
2015,08,29,06,23,992.92
2015,08,29,06,24,992.96
2015,08,29,06,25,992.96
2015,08,29,06,26,992.86
2015,08,29,06,27,992.82
2015,08,29,06,28,992.79
2015,08,29,06,29,992.75
2015,08,29,06,30,992.75
2015,08,29,06,31,992.69
2015,08,29,06,32,992.62
2015,08,29,06,33,992.75
2015,08,29,06,34,992.68
2015,08,29,06,35,992.48
2015,08,29,06,36,992.48
2015,08,29,06,37,992.48
2015,08,29,06,38,992.48
2015,08,29,06,39,992.42
2015,08,29,06,40,992.38
2015,08,29,06,41,992.35
2015,08,29,06,42,992.35
2015,08,29,06,43,992.42
2015,08,29,06,44,992.38
2015,08,29,06,45,992.35
2015,08,29,06,46,992.25
2015,08,29,06,47,992.21
2015,08,29,06,48,992.14
2015,08,29,06,49,992.08
2015,08,29,06,50,992.04
2015,08,29,06,51,992.11
2015,08,29,06,52,992.11
2015,08,29,06,53,992.14
2015,08,29,06,54,992.11
2015,08,29,06,55,992.14
2015,08,29,06,56,992.18
2015,08,29,06,57,992.18
2015,08,29,06,58,992.21
2015,08,29,06,59,992.28
2015,08,29,07,00,992.15
2015,08,29,07,01,992.04
2015,08,29,07,02,992.04
2015,08,29,07,03,992.08
2015,08,29,07,04,992.04
2015,08,29,07,05,991.98
2015,08,29,07,06,991.94
2015,08,29,07,07,991.98
2015,08,29,07,08,992.01
2015,08,29,07,09,992.14
2015,08,29,07,10,992.08
2015,08,29,07,11,992.01
2015,08,29,07,12,992.01
2015,08,29,07,13,991.98
2015,08,29,07,14,991.84
2015,08,29,07,15,991.81
2015,08,29,07,16,991.81
2015,08,29,07,17,991.77
2015,08,29,07,18,991.84
2015,08,29,07,19,991.74
2015,08,29,07,20,991.53
2015,08,29,07,21,991.53
2015,08,29,07,22,991.53
2015,08,29,07,23,991.57
2015,08,29,07,24,991.53
2015,08,29,07,25,991.53
2015,08,29,07,26,991.42
2015,08,29,07,27,991.33
2015,08,29,07,28,991.43
2015,08,29,07,29,991.47
2015,08,29,07,30,991.47
2015,08,29,07,31,991.47
2015,08,29,07,32,991.43
2015,08,29,07,33,991.37
2015,08,29,07,34,991.20
2015,08,29,07,35,990.99
2015,08,29,07,36,991.03
2015,08,29,07,37,991.13
2015,08,29,07,38,991.16
2015,08,29,07,39,991.40
2015,08,29,07,40,991.43
2015,08,29,07,41,991.47
2015,08,29,07,42,991.50
2015,08,29,07,43,991.37
2015,08,29,07,44,991.33
2015,08,29,07,45,991.13
2015,08,29,07,46,991.13
2015,08,29,07,47,991.13
2015,08,29,07,48,991.16
2015,08,29,07,49,991.13
2015,08,29,07,50,991.09
2015,08,29,07,51,991.16
2015,08,29,07,52,991.20
2015,08,29,07,53,991.13
2015,08,29,07,54,991.09
2015,08,29,07,55,991.09
2015,08,29,07,56,991.06
2015,08,29,07,57,991.03
2015,08,29,07,58,991.09
2015,08,29,07,59,991.09
2015,08,29,08,00,990.99
2015,08,29,08,01,990.93
2015,08,29,08,02,990.89
2015,08,29,08,03,990.82
2015,08,29,08,04,990.76
2015,08,29,08,05,990.72
2015,08,29,08,06,990.76
2015,08,29,08,07,990.76
2015,08,29,08,08,990.82
2015,08,29,08,09,990.89
2015,08,29,08,10,990.96
2015,08,29,08,11,990.82
2015,08,29,08,12,990.69
2015,08,29,08,13,990.76
2015,08,29,08,14,990.72
2015,08,29,08,15,990.69
2015,08,29,08,16,990.76
2015,08,29,08,17,990.89
2015,08,29,08,18,990.86
2015,08,29,08,19,990.89
2015,08,29,08,20,990.93
2015,08,29,08,21,990.96
2015,08,29,08,22,991.03
2015,08,29,08,23,991.06
2015,08,29,08,24,991.06
2015,08,29,08,25,991.16
2015,08,29,08,26,991.23
2015,08,29,08,27,991.26
2015,08,29,08,28,991.30
2015,08,29,08,29,991.33
2015,08,29,08,30,991.50
2015,08,29,08,31,991.40
2015,08,29,08,32,991.37
2015,08,29,08,33,991.30
2015,08,29,08,34,991.26
2015,08,29,08,35,991.26
2015,08,29,08,36,991.30
2015,08,29,08,37,991.50
2015,08,29,08,38,991.53
2015,08,29,08,39,991.33
2015,08,29,08,40,991.30
2015,08,29,08,41,991.37
2015,08,29,08,42,991.40
2015,08,29,08,43,991.33
2015,08,29,08,44,991.16
2015,08,29,08,45,991.13
2015,08,29,08,46,991.30
2015,08,29,08,47,991.26
2015,08,29,08,48,991.20
2015,08,29,08,49,991.37
2015,08,29,08,50,991.33
2015,08,29,08,51,991.16
2015,08,29,08,52,991.09
2015,08,29,08,53,991.09
2015,08,29,08,54,991.03
2015,08,29,08,55,991.13
2015,08,29,08,56,991.16
2015,08,29,08,57,991.13
2015,08,29,08,58,991.03
2015,08,29,08,59,990.93
2015,08,29,09,00,990.82
2015,08,29,09,01,990.89
2015,08,29,09,02,990.76
2015,08,29,09,03,990.66
2015,08,29,09,04,990.72
2015,08,29,09,05,990.75
2015,08,29,09,06,990.62
2015,08,29,09,07,990.65
2015,08,29,09,08,990.76
2015,08,29,09,09,990.89
2015,08,29,09,10,990.60
2015,08,29,09,11,990.72
2015,08,29,09,12,990.79
2015,08,29,09,13,990.72
2015,08,29,09,14,990.79
2015,08,29,09,15,990.69
2015,08,29,09,16,990.65
2015,08,29,09,17,990.76
2015,08,29,09,18,990.76
2015,08,29,09,19,990.76
2015,08,29,09,20,990.69
2015,08,29,09,21,990.62
2015,08,29,09,22,990.52
2015,08,29,09,23,990.52
2015,08,29,09,24,990.55
2015,08,29,09,25,990.45
2015,08,29,09,26,990.38
2015,08,29,09,27,990.42
2015,08,29,09,28,990.49
2015,08,29,09,29,990.42
2015,08,29,09,30,990.42
2015,08,29,09,31,990.28
2015,08,29,09,32,990.25
2015,08,29,09,33,990.21
2015,08,29,09,34,990.25
2015,08,29,09,35,990.28
2015,08,29,09,36,990.42
2015,08,29,09,37,990.35
2015,08,29,09,38,990.35
2015,08,29,09,39,990.35
2015,08,29,09,40,990.42
2015,08,29,09,41,990.42
2015,08,29,09,42,990.29
2015,08,29,09,43,990.28
2015,08,29,09,44,990.21
2015,08,29,09,45,990.25
2015,08,29,09,46,990.25
2015,08,29,09,47,990.28
2015,08,29,09,48,990.28
2015,08,29,09,49,990.35
2015,08,29,09,50,990.25
2015,08,29,09,51,990.32
2015,08,29,09,52,990.28
2015,08,29,09,53,990.08
2015,08,29,09,54,990.28
2015,08,29,09,55,990.35
2015,08,29,09,56,990.32
2015,08,29,09,57,990.28
2015,08,29,09,58,990.21
2015,08,29,09,59,990.15
2015,08,29,10,00,990.25
2015,08,29,10,01,990.42
2015,08,29,10,02,990.38
2015,08,29,10,03,990.45
2015,08,29,10,04,990.62
2015,08,29,10,05,990.62
2015,08,29,10,06,990.75
2015,08,29,10,07,990.65
2015,08,29,10,08,990.69
2015,08,29,10,09,990.65
2015,08,29,10,10,990.69
2015,08,29,10,11,990.89
2015,08,29,10,12,990.86
2015,08,29,10,13,990.93
2015,08,29,10,14,990.82
2015,08,29,10,15,990.69
2015,08,29,10,16,990.93
2015,08,29,10,17,990.99
2015,08,29,10,18,990.99
2015,08,29,10,19,990.90
2015,08,29,10,20,990.98
2015,08,29,10,21,990.89
2015,08,29,10,22,990.96
2015,08,29,10,23,990.89
2015,08,29,10,24,990.82
2015,08,29,10,25,990.89
2015,08,29,10,26,990.86
2015,08,29,10,27,990.93
2015,08,29,10,28,990.83
2015,08,29,10,29,990.93
2015,08,29,10,30,990.99
2015,08,29,10,31,991.06
2015,08,29,10,32,991.03
2015,08,29,10,33,991.09
2015,08,29,10,34,990.97
2015,08,29,10,35,990.99
2015,08,29,10,36,990.89
2015,08,29,10,37,990.93
2015,08,29,10,38,990.93
2015,08,29,10,39,990.90
2015,08,29,10,40,990.96
2015,08,29,10,41,990.99
2015,08,29,10,42,990.96
2015,08,29,10,43,991.03
2015,08,29,10,44,991.09
2015,08,29,10,45,991.20
2015,08,29,10,46,991.20
2015,08,29,10,47,991.16
2015,08,29,10,48,991.13
2015,08,29,10,49,991.16
2015,08,29,10,50,991.09
2015,08,29,10,51,991.09
2015,08,29,10,52,991.09
2015,08,29,10,53,991.16
2015,08,29,10,54,991.20
2015,08,29,10,55,991.23
2015,08,29,10,56,991.33
2015,08,29,10,57,991.21
2015,08,29,10,58,991.06
2015,08,29,10,59,990.93
2015,08,29,11,00,990.89
2015,08,29,11,01,990.96
2015,08,29,11,02,991.03
2015,08,29,11,03,991.06
2015,08,29,11,04,991.06
2015,08,29,11,05,990.99
2015,08,29,11,06,990.90
2015,08,29,11,07,990.89
2015,08,29,11,08,991.06
2015,08,29,11,09,991.06
2015,08,29,11,10,991.03
2015,08,29,11,11,991.06
2015,08,29,11,12,991.09
2015,08,29,11,13,991.13
2015,08,29,11,14,991.09
2015,08,29,11,15,991.09
2015,08,29,11,16,991.22
2015,08,29,11,17,991.37
2015,08,29,11,18,991.33
2015,08,29,11,19,991.40
2015,08,29,11,20,991.33
2015,08,29,11,21,991.26
2015,08,29,11,22,991.33
2015,08,29,11,23,991.26
2015,08,29,11,24,991.30
2015,08,29,11,25,991.30
2015,08,29,11,26,991.23
2015,08,29,11,27,991.26
2015,08,29,11,28,991.26
2015,08,29,11,29,991.26
2015,08,29,11,30,991.26
2015,08,29,11,31,991.30
2015,08,29,11,32,991.26
2015,08,29,11,33,991.30
2015,08,29,11,34,991.26
2015,08,29,11,35,991.30
2015,08,29,11,36,991.37
2015,08,29,11,37,991.40
2015,08,29,11,38,991.47
2015,08,29,11,39,991.33
2015,08,29,11,40,991.37
2015,08,29,11,41,991.40
2015,08,29,11,42,991.49
2015,08,29,11,43,991.53
2015,08,29,11,44,991.57
2015,08,29,11,45,991.57
2015,08,29,11,46,991.64
2015,08,29,11,47,991.64
2015,08,29,11,48,991.67
2015,08,29,11,49,991.67
2015,08,29,11,50,991.67
2015,08,29,11,51,991.64
2015,08,29,11,52,991.67
2015,08,29,11,53,991.67
2015,08,29,11,54,991.74
2015,08,29,11,55,991.81
2015,08,29,11,56,991.81
2015,08,29,11,57,991.77
2015,08,29,11,58,991.84
2015,08,29,11,59,991.81
2015,08,29,12,00,991.81
2015,08,29,12,01,991.81
2015,08,29,12,02,991.84
2015,08,29,12,03,991.81
2015,08,29,12,04,991.84
2015,08,29,12,05,991.81
2015,08,29,12,06,991.81
2015,08,29,12,07,991.87
2015,08,29,12,08,991.91
2015,08,29,12,09,991.87
2015,08,29,12,10,992.08
2015,08,29,12,11,991.98
2015,08,29,12,12,992.08
2015,08,29,12,13,992.11
2015,08,29,12,14,992.01
2015,08,29,12,15,992.18
2015,08,29,12,16,992.25
2015,08,29,12,17,992.25
2015,08,29,12,18,992.15
2015,08,29,12,19,992.21
2015,08,29,12,20,992.14
2015,08,29,12,21,992.28
2015,08,29,12,22,992.35
2015,08,29,12,23,992.35
2015,08,29,12,24,992.35
2015,08,29,12,25,992.31
2015,08,29,12,26,992.42
2015,08,29,12,27,992.31
2015,08,29,12,28,992.35
2015,08,29,12,29,992.31
2015,08,29,12,30,992.38
2015,08,29,12,31,992.48
2015,08,29,12,32,992.58
2015,08,29,12,33,992.52
2015,08,29,12,34,992.58
2015,08,29,12,35,992.55
2015,08,29,12,36,992.55
2015,08,29,12,37,992.62
2015,08,29,12,38,992.65
2015,08,29,12,39,992.69
2015,08,29,12,40,992.75
2015,08,29,12,41,992.79
2015,08,29,12,42,992.79
2015,08,29,12,43,992.91
2015,08,29,12,44,992.86
2015,08,29,12,45,992.89
2015,08,29,12,46,992.89
2015,08,29,12,47,992.86
2015,08,29,12,48,992.92
2015,08,29,12,49,992.96
2015,08,29,12,50,992.99
2015,08,29,12,51,992.96
2015,08,29,12,52,992.99
2015,08,29,12,53,992.99
2015,08,29,12,54,992.92
2015,08,29,12,55,992.89
2015,08,29,12,56,992.89
2015,08,29,12,57,992.92
2015,08,29,12,58,992.96
2015,08,29,12,59,992.92
2015,08,29,13,00,992.99
2015,08,29,13,01,993.06
2015,08,29,13,02,993.09
2015,08,29,13,03,993.13
2015,08,29,13,04,993.13
2015,08,29,13,05,993.13
2015,08,29,13,06,993.09
2015,08,29,13,07,993.06
2015,08,29,13,08,993.06
2015,08,29,13,09,993.06
2015,08,29,13,10,993.09
2015,08,29,13,11,993.09
2015,08,29,13,12,993.16
2015,08,29,13,13,993.23
2015,08,29,13,14,993.19
2015,08,29,13,15,993.26
2015,08,29,13,16,993.26
2015,08,29,13,17,993.30
2015,08,29,13,18,993.23
2015,08,29,13,19,993.30
2015,08,29,13,20,993.23
2015,08,29,13,21,993.26
2015,08,29,13,22,993.26
2015,08,29,13,23,993.26
2015,08,29,13,24,993.26
2015,08,29,13,25,993.23
2015,08,29,13,26,993.26
2015,08,29,13,27,993.33
2015,08,29,13,28,993.30
2015,08,29,13,29,993.30
2015,08,29,13,30,993.36
2015,08,29,13,31,993.40
2015,08,29,13,32,993.36
2015,08,29,13,33,993.40
2015,08,29,13,34,993.40
2015,08,29,13,35,993.40
2015,08,29,13,36,993.43
2015,08,29,13,37,993.40
2015,08,29,13,38,993.53
2015,08,29,13,39,993.57
2015,08,29,13,40,993.53
2015,08,29,13,41,993.63
2015,08,29,13,42,993.60
2015,08,29,13,43,993.70
2015,08,29,13,44,993.67
2015,08,29,13,45,993.74
2015,08,29,13,46,993.70
2015,08,29,13,47,993.77
2015,08,29,13,48,993.87
2015,08,29,13,49,993.97
2015,08,29,13,50,993.91
2015,08,29,13,51,994.01
2015,08,29,13,52,994.04
2015,08,29,13,53,994.18
2015,08,29,13,54,994.21
2015,08,29,13,55,994.28
2015,08,29,13,56,994.32
2015,08,29,13,57,994.45
2015,08,29,13,58,994.48
2015,08,29,13,59,994.62
2015,08,29,14,00,994.68
2015,08,29,14,01,994.72
2015,08,29,14,02,994.82
2015,08,29,14,03,994.85
2015,08,29,14,04,994.92
2015,08,29,14,05,995.02
2015,08,29,14,06,995.02
2015,08,29,14,07,995.09
2015,08,29,14,08,995.19
2015,08,29,14,09,995.26
2015,08,29,14,10,995.33
2015,08,29,14,11,995.43
2015,08,29,14,12,995.43
2015,08,29,14,13,995.50
2015,08,29,14,14,995.53
2015,08,29,14,15,995.53
2015,08,29,14,16,995.56
2015,08,29,14,17,995.60
2015,08,29,14,18,995.63
2015,08,29,14,19,995.67
2015,08,29,14,20,995.73
2015,08,29,14,21,995.80
2015,08,29,14,22,995.84
2015,08,29,14,23,995.87
2015,08,29,14,24,995.90
2015,08,29,14,25,995.97
2015,08,29,14,26,996.01
2015,08,29,14,27,996.04
2015,08,29,14,28,996.14
2015,08,29,14,29,996.17
2015,08,29,14,30,996.24
2015,08,29,14,31,996.34
2015,08,29,14,32,996.38
2015,08,29,14,33,996.38
2015,08,29,14,34,996.51
2015,08,29,14,35,996.48
2015,08,29,14,36,996.58
2015,08,29,14,37,996.59
2015,08,29,14,38,996.68
2015,08,29,14,39,996.72
2015,08,29,14,40,996.82
2015,08,29,14,41,996.82
2015,08,29,14,42,996.78
2015,08,29,14,43,996.85
2015,08,29,14,44,996.89
2015,08,29,14,45,996.99
2015,08,29,14,46,997.02
2015,08,29,14,47,997.02
2015,08,29,14,48,997.05
2015,08,29,14,49,997.09
2015,08,29,14,50,997.16
2015,08,29,14,51,997.19
2015,08,29,14,52,997.19
2015,08,29,14,53,997.22
2015,08,29,14,54,997.22
2015,08,29,14,55,997.33
2015,08,29,14,56,997.33
2015,08,29,14,57,997.39
2015,08,29,14,58,997.39
2015,08,29,14,59,997.43
2015,08,29,15,00,997.56
2015,08,29,15,01,997.63
2015,08,29,15,02,997.63
2015,08,29,15,03,997.70
2015,08,29,15,04,997.77
2015,08,29,15,05,997.77
2015,08,29,15,06,997.80
2015,08,29,15,07,997.87
2015,08,29,15,08,997.87
2015,08,29,15,09,997.83
2015,08,29,15,10,997.94
2015,08,29,15,11,997.90
2015,08,29,15,12,997.94
2015,08,29,15,13,998.00
2015,08,29,15,14,998.04
2015,08,29,15,15,998.07
2015,08,29,15,16,998.00
2015,08,29,15,17,998.04
2015,08,29,15,18,998.04
2015,08,29,15,19,998.00
2015,08,29,15,20,998.07
2015,08,29,15,21,998.07
2015,08,29,15,22,998.04
2015,08,29,15,23,998.07
2015,08,29,15,24,998.04
2015,08,29,15,25,998.00
2015,08,29,15,26,998.00
2015,08,29,15,27,998.04
2015,08,29,15,28,998.10
2015,08,29,15,29,998.10
2015,08,29,15,30,998.14
2015,08,29,15,31,998.17
2015,08,29,15,32,998.21
2015,08,29,15,33,998.24
2015,08,29,15,34,998.27
2015,08,29,15,35,998.31
2015,08,29,15,36,998.34
2015,08,29,15,37,998.41
2015,08,29,15,38,998.44
2015,08,29,15,39,998.41
2015,08,29,15,40,998.41
2015,08,29,15,41,998.44
2015,08,29,15,42,998.41
2015,08,29,15,43,998.41
2015,08,29,15,44,998.38
2015,08,29,15,45,998.41
2015,08,29,15,46,998.48
2015,08,29,15,47,998.51
2015,08,29,15,48,998.48
2015,08,29,15,49,998.48
2015,08,29,15,50,998.44
2015,08,29,15,51,998.51
2015,08,29,15,52,998.54
2015,08,29,15,53,998.61
2015,08,29,15,54,998.61
2015,08,29,15,55,998.61
2015,08,29,15,56,998.61
2015,08,29,15,57,998.68
2015,08,29,15,58,998.78
2015,08,29,15,59,998.82
2015,08,29,16,00,998.88
2015,08,29,16,01,998.92
2015,08,29,16,02,998.95
2015,08,29,16,03,998.95
2015,08,29,16,04,998.95
2015,08,29,16,05,999.02
2015,08,29,16,06,999.02
2015,08,29,16,07,999.02
2015,08,29,16,08,999.02
2015,08,29,16,09,998.99
2015,08,29,16,10,999.05
2015,08,29,16,11,999.05
2015,08,29,16,12,999.12
2015,08,29,16,13,999.12
2015,08,29,16,14,999.09
2015,08,29,16,15,999.12
2015,08,29,16,16,999.15
2015,08,29,16,17,999.15
2015,08,29,16,18,999.19
2015,08,29,16,19,999.15
2015,08,29,16,20,999.15
2015,08,29,16,21,999.19
2015,08,29,16,22,999.19
2015,08,29,16,23,999.15
2015,08,29,16,24,999.22
2015,08,29,16,25,999.26
2015,08,29,16,26,999.26
2015,08,29,16,27,999.29